830  
ASUS43 KIWX 181910  
RWRIWX  
 
KIWX WEATHER ROUNDUP  
NATIONAL WEATHER SERVICE NORTHERN INDIANA  
200 PM EST SAT NOV 18 2017  
 
NOTE: "FAIR" INDICATES FEW OR NO CLOUDS BELOW 12,000 FEET WITH NO  
SIGNIFICANT WEATHER AND/OR S TO VISIBILITY
.  
 
* THESE STATIONS ARE NOT UNDER NWS QUALITY CONTROL. THEY ALSO MAY NOT  
REPORT WEATHER SUCH AS PRECIPITATION OR FOG.
 
 
INZ001>027-182000-  
NORTHERN INDIANA  
 
CITY SKY/WX TMP DP RH WIND PRES REMARKS
 
GARY* RAIN 43 41 93 N28G44 29.43R  
VALPARAISO LGT RAIN 45 42 89 N14G31 29.36F  
MICHIGAN CITY* LGT RAIN 43 43 100 N17G29 29.40R  
LAPORTE* DRIZZLE 43 40 91 N21G30 29.38R  
KNOX* CLOUDY 43 41 93 N28G37 29.32F  
SOUTH BEND CLOUDY 41 41 100 N22G29 29.35R  
ELKHART* CLOUDY 43 39 87 N15 29.33S  
GOSHEN LGT RAIN 46 42 86 N21 29.29R  
MONTICELLO* DRIZZLE 46 44 95 N20G29 29.30R  
LOGANSPORT* LGT RAIN 45 45 100 N18 29.28R  
ROCHESTER* CLOUDY 46 46 100 N20G28 29.26F  
WARSAW* CLOUDY 45 45 100 N13G18 29.28R  
AUBURN* CLOUDY 50 46 87 NW10 29.24R  
FORT WAYNE LGT RAIN 54 53 97 NW12G20 29.21R  
HUNTINGTON* LGT RAIN 50 49 96 N10 29.21R  
PERU/GRISSOM LGT RAIN 48 48 100 N20 29.25R  
MARION* LGT RAIN N/A N/A N/A NW3 29.21F  
 

 
INZ028>050-182000-  
CENTRAL INDIANA  
 
CITY SKY/WX TMP DP RH WIND PRES REMARKS
 
LAFAYETTE CLOUDY 46 45 96 N21G36 29.31R  
KOKOMO* LGT RAIN 50 49 96 N13 29.24R  
MUNCIE* HVY RAIN 59 56 89 W12G23 29.23R FOG  
INDIANAPOLIS TSTM 64 60 87 SW26G39 29.24F  
 

 
MIZ043>046-050>051-056>058-064>065-071>073-077>080-182000-  
SOUTHWEST LOWER MICHIGAN  
 
CITY SKY/WX TMP DP RH WIND PRES REMARKS
 
BATTLE CREEK LGT RAIN 43 42 97 N15 29.32F  
BENTON HARBOR LGT RAIN 43 39 86 N12G25 29.38S FOG  
COLDWATER* RAIN 46 46 100 N10G20 29.27F  
HILLSDALE* CLOUDY 43 43 100 N12 29.26F  
HOLLAND RAIN 40 37 89 N7G17 29.40S FOG  
GRAND RAPIDS RAIN 41 41 100 N13 29.38S FOG  
KALAMAZOO LGT RAIN 43 39 86 N21 29.35F  
STURGIS* LGT RAIN 43 43 100 N15G22 29.28S  
THREE RIVERS* LGT RAIN 45 44 97 N12G21 29.32F  
 

 
OHZ001>008-015>018-024>025-182000-  
NORTHWEST OHIO  
 
CITY SKY/WX TMP DP RH WIND PRES REMARKS
 
WAUSEON* LGT RAIN 50 50 100 E13 29.16F VSB 1/4  
DEFIANCE LGT RAIN 52 50 93 SE14 29.17F FOG  
FINDLAY HVY RAIN 52 48 86 SE20 29.17F FOG  
TOLEDO EXPRESS HVY RAIN 50 50 100 CALM 29.28S VSB 3/4  
TOLEDO METCALF HVY RAIN 51 50 96 CALM 29.28F VSB 3/4  
LIMA LGT RAIN 54 53 97 SE16 29.18F  
 

 
AND FOR LAKE MICHIGAN COASTAL AND OPEN LAKE BUOY OBSERVATIONS  
 
STATION/POSITION TEMP WIND PRES VSBY WAVE
 
AIR SEA DIR/SP/G HT/PER  
(F) (DEG/KT/KT) (MB) (MI) (FT/S)  
MICHIGAN CITY 44 360/ 28/ 31 N/A  
BURNS HARBOR 44 360/ 30/ 36 995.9R  
SAINT JOSEPH 44 20/ 20/ 28 995.9  
SOUTH LAKE BUOY 44 49 10/ 25/ 29 996.8 6/ 6  
 

 

 
 
 
CLICK HERE TO GO TO PREVIOUS BULLETINS.

The Nexlab IN Page
The Nexlab OH Page
The Nexlab MI Page Main Text Page